Weather Roundup
Issued by NWS

Home | Current Version | Previous Version | Text Only | Print | Product List | Glossary On
Versions: 1 2 3 4 5 6 7 8 9 10 11 12 13 14 15 16 17 18 19 20 21 22 23 24 25 26 27 28 29 30 31 32 33 34 35 36 37 38 39 40 41 42 43 44 45 46 47 48 49 50
000
NZUS93 KARX 160159
HRRWXR

CURRENT HOURLY OBSERVATIONS ACROSS
MUCH OF THE UPPER MISSISSIPPI VALLEY
NATIONAL WEATHER SERVICE LA CROSSE WI
900 PM CDT TUE APR 15 2014


...SOUTHEAST MINNESOTA...


CITY           SKY/WX    TMP DP  RH WIND       PRES   REMARKS
ROCHESTER      MOCLDY    31  20  63 S3        30.08R
ROCHESTER/MAYO CLOUDY    33  11  40 SE3       30.09R
WINONA         MOCLDY    34  19  55 CALM      30.12R
AUSTIN         PTCLDY    30  18  59 CALM      30.07R
ALBERT LEA     CLOUDY    34  18  51 SE5       30.05S WCI  30
DODGE CENTER   MOCLDY    34  21  60 SE5       30.07R WCI  30
PRESTON        PTCLDY    32  18  57 CALM      30.09R
OWATONNA       CLOUDY    34  16  47 SE5       30.07R WCI  30
FARIBAULT      CLOUDY    37   9  30 SE5       30.08R WCI  34
$$

...ELSEWHERE IN MINNESOTA...


CITY           SKY/WX    TMP DP  RH WIND       PRES   REMARKS
MINNEAPOLIS    CLOUDY    35   8  32 S10       30.08R WCI  27
INTNL FALLS    CLEAR     23   6  48 E5        30.06R WCI  17
DULUTH         PTCLDY    27   5  39 S6        30.05R WCI  20
RED WING       CLOUDY    36  12  38 S3        30.09R
REDWOOD FALLS  CLOUDY    36  12  37 E13       29.96F WCI  27
MANKATO        CLOUDY    34  16  47 SE9       30.05S WCI  26
WORTHINGTON    MOCLDY    36  21  55 E15       29.91S WCI  26
FAIRMONT       CLOUDY    36  21  55 SE13      30.00F WCI  27
$$

...SOUTHWEST WISCONSIN...


CITY           SKY/WX    TMP DP  RH WIND       PRES   REMARKS
LA CROSSE      MOCLDY    33  14  45 S6        30.12R WCI  28
PRAIRIE DU CHI CLEAR     32  19  58 CALM      30.12R
BOSCOBEL       MOCLDY    31  16  54 SE3       30.14R
LONE ROCK      NOT AVBL
PLATTEVILLE    CLEAR     33  16  48 CALM      30.13R
FORT MC COY    CLEAR     28  18  67 E3        30.13R
VIROQUA        FAIR      31  15  51 CALM      30.09R
WIS DELLS      CLEAR     28  21  75 CALM      30.13R
$$

...ELSEWHERE IN WISCONSIN...


CITY           SKY/WX    TMP DP  RH WIND       PRES   REMARKS
MILWAUKEE      MOCLDY    29  20  69 S7        30.19R WCI  22
MADISON        CLEAR     31  15  52 CALM      30.15R
GREEN BAY      CLEAR     30  17  58 SW3       30.16R
EAU CLAIRE     NOT AVBL
BLACK RVR FLS  FAIR      26  15  62 CALM      30.11R
MEDFORD        CLEAR     28  13  53 W3        30.07R
WAUSAU         CLEAR     27  12  53 SW5       30.10R WCI  22
WIS RAPIDS     CLEAR     27  17  66 S5        30.14R WCI  22
MARSHFIELD     CLEAR     29  16  58 CALM      30.10R
RICE LAKE      NOT AVBL
$$

...NORTHEAST IOWA...


CITY           SKY/WX    TMP DP  RH WIND       PRES   REMARKS
WATERLOO       CLEAR     34  16  47 SE3       30.09R
DUBUQUE        CLEAR     30  20  66 SE3       30.12R
DECORAH        CLOUDY    32  18  55 CALM      30.09R
MASON CITY     MOCLDY    32  23  69 SE8       30.06R WCI  25
CHARLES CITY   CLOUDY    34  18  51 S6        30.09R WCI  29
OELWEIN        CLOUDY   N/A N/A N/A S3        30.10R
$$

...ELSEWHERE IN IOWA...


CITY           SKY/WX    TMP DP  RH WIND       PRES   REMARKS
DES MOINES     PTCLDY    43  21  41 SE9       30.03S
IOWA CITY      CLEAR     34  19  54 SE5       30.14R WCI  30
FORT DODGE     MOCLDY    37  25  60 SE12      29.99S WCI  30
MARSHALLTOWN   CLEAR     33  25  72 E8        30.06R WCI  26
CEDAR RAPIDS   CLEAR     33  17  51 SE6       30.10R WCI  28
$$

...NORTHERN ILLINOIS...


CITY           SKY/WX    TMP DP  RH WIND       PRES   REMARKS
CHICAGO-OHARE  PTCLDY    34  18  52 SW5       30.18R WCI  30
DUPAGE         FAIR      32  21  64 CALM      30.18R
CHICAGO-MIDWAY PTCLDY    35  19  52 S6        30.19R WCI  30
MOLINE         CLEAR     31  20  63 S3        30.15R
ROCKFORD       CLEAR     34  17  50 CALM      30.18R
STERLING       CLEAR     30  18  59 CALM      30.16R
PEORIA         CLEAR     37  19  48 CALM      30.18R
$$

NOTE: "FAIR" INDICATES FEW OR NO CLOUDS BELOW 12,000 FEET WITH NO
SIGNIFICANT WEATHER AND/OR OBSTRUCTIONS TO VISIBILITY. WIND
SPEEDS ARE IN MILES-PER-HOUR.



USA.gov is the U.S. government's official web portal to all federal, state and local government web resources and services.